TimeCST,TemperatureF,Dew PointF,Humidity,Sea Level PressureIn,VisibilityMPH,Wind Direction,Wind SpeedMPH,Gust SpeedMPH,PrecipitationIn,Events,Conditions,WindDirDegrees,DateUTC
12:51 AM,51.1,41.0,68,30.19,10.0,North,11.5,-,N/A,,Scattered Clouds,350,2013-01-02 06:51:00
1:51 AM,50.0,39.9,68,30.19,10.0,NNE,19.6,-,N/A,,Overcast,20,2013-01-02 07:51:00
2:51 AM,50.0,39.0,66,30.21,10.0,North,17.3,-,N/A,,Overcast,10,2013-01-02 08:51:00
3:51 AM,48.9,39.0,69,30.20,10.0,NNE,17.3,23.0,N/A,,Mostly Cloudy,20,2013-01-02 09:51:00
4:51 AM,48.0,37.0,66,30.22,10.0,North,18.4,-,N/A,,Mostly Cloudy,10,2013-01-02 10:51:00
5:51 AM,46.9,34.0,61,30.22,10.0,NNE,17.3,-,0.00,,Overcast,20,2013-01-02 11:51:00
6:51 AM,46.0,36.0,68,30.25,10.0,North,16.1,-,0.00,Rain,Light Rain,10,2013-01-02 12:51:00
7:51 AM,45.0,37.9,76,30.26,10.0,North,12.7,-,0.00,Rain,Light Rain,10,2013-01-02 13:51:00
8:51 AM,44.1,35.1,71,30.29,10.0,North,13.8,-,0.00,Rain,Light Rain,10,2013-01-02 14:51:00
9:51 AM,44.1,36.0,73,30.32,10.0,North,11.5,-,0.01,Rain,Light Rain,350,2013-01-02 15:51:00
10:51 AM,42.8,35.6,76,30.31,10.0,North,12.7,-,N/A,Rain,Light Rain,10,2013-01-02 16:51:00
11:51 AM,43.0,37.0,80,30.30,10.0,North,9.2,-,0.01,Rain,Light Rain,350,2013-01-02 17:51:00
12:51 PM,43.0,37.0,80,30.29,9.0,NNW,11.5,-,0.03,Rain,Light Rain,330,2013-01-02 18:51:00
1:51 PM,43.0,37.0,80,30.25,7.0,North,15.0,-,0.01,Rain,Light Rain,10,2013-01-02 19:51:00
2:51 PM,43.0,37.9,82,30.22,7.0,North,11.5,-,0.02,Rain,Light Rain,10,2013-01-02 20:51:00
3:51 PM,43.0,37.9,82,30.23,9.0,North,12.7,-,0.02,Rain,Light Rain,360,2013-01-02 21:51:00
4:51 PM,43.0,39.0,86,30.25,8.0,North,11.5,-,0.01,Rain,Light Rain,350,2013-01-02 22:51:00
5:51 PM,43.0,37.9,82,30.27,8.0,North,9.2,-,0.01,Rain,Light Rain,360,2013-01-02 23:51:00
6:51 PM,43.0,37.9,82,30.29,10.0,North,10.4,-,0.03,Rain,Light Rain,10,2013-01-03 00:51:00
7:51 PM,43.0,37.9,82,30.29,10.0,North,8.1,-,0.02,Rain,Light Rain,10,2013-01-03 01:51:00
8:51 PM,43.0,37.9,82,30.30,10.0,North,8.1,-,0.00,,Overcast,360,2013-01-03 02:51:00
9:51 PM,44.1,37.9,79,30.31,10.0,North,9.2,-,N/A,,Overcast,360,2013-01-03 03:51:00
10:51 PM,44.1,37.0,76,30.30,10.0,North,10.4,-,N/A,,Overcast,360,2013-01-03 04:51:00
11:51 PM,44.1,37.0,76,30.30,10.0,North,10.4,-,N/A,,Overcast,10,2013-01-03 05:51:00